カタログに戻る

STARLINK-33562

運用中通信VLEO
NORAD 62102·PAYLOAD·🇺🇸 United States

打ち上げ Nov 25, 2024 から Cape Canaveral Space Force Station

Loading…

次のパス (今後24時間)

TLE

最新Source: CelesTrak SupGP

元期: Sep 14, 2026, 15:16 UTC

1 62102C 24220Q   26257.63659722 -.00024917  00000+0 -90277-3 0  2572
2 62102  43.0010 218.3693 0001235 265.2461 298.6701 15.27581147    15

AllMySatでSTARLINK-33562をリアルタイム追跡

Download on the App Store